STARLINK-32158 (60267 NORAD) Tracking and Keplerian Element Data

This shows tracking and keplerian element data for the satellite.

Feedback or suggestion? Click here.




ElementValue
Catalog60267
NameSTARLINK-32158
Epoch Orbit1306
Epoch Day286.71174238
Epoch Year2024
RAAN276.282
Inclination53.1591
Eccentricity0.0001681
Argument of Perigee99.7654
Mean Anonmoly260.3541
Mean Motion15.39609511
Decay Rate0.00017343
L11 60267U 24131N 24286.71174238 .00017343 00000+0 44273-3 0 9997
L22 60267 53.1591 276.2820 0001681 99.7654 260.3541 15.39609511 13061



Live tracking and technical data element details for STARLINK-32158 (NORAD 60267). STARLINK-32158 can be tracked NOW for your location showing map with azimuth and elevation plus other details from your city location.







IsCatalogInMostPopularTable: catalog: 60267, numindb: 10
Update: records affected: 1



GetName: 60267 STARLINK-32158

Hit Count: updated at: Thu, 23 Jan 2025 13:25:24 GMT